User: anonymous   Login
Location: Mascot Post Office (historical)
(40.2645°N, 99.5462°W)
Time: 22:37:41
(UTC+00:00)
Language:

NOSS 0 Rocket - Orbit

View from above orbital plane
View from above orbital plane
View from above satellite
View from above satellite

Ground track
Ground track

The orbit data is extracted from the following two-line orbital elements,

1  5679U 71110B   20270.51539457 -.00000029  00000-0  19959-4 0  9996
2  5679  69.9963  69.1607 0015463 270.8585  89.0743 13.85342966 79918
Epoch (UTC): 26 September 2020 12:22:10
Eccentricity: 0.0015463
inclination: 69.9963°
perigee height: 933 km
apogee height: 956 km
right ascension of ascending node: 69.1607°
argument of perigee: 270.8585°
revolutions per day: 13.85342966
mean anomaly at epoch: 89.0743°
orbit number at epoch: 7991

The dashed part of the orbit path shows where the satellite is in the earth's shadow,  

DLR